Location: Ermatingen
(47.6706°N, 9.0857°E)
Time: 23:26:23
(UTC+00:00)

Abrixas rocket - Pass Details

Date: 18 September 2020
Orbit: 327 x 334 km, 48.4° (Epoch: 31 October)

Event Time Altitude Azimuth Distance (km) Brightness Sun altitude
Rises 19:35:57 0° 273° (W) 2,090 6.9 -21.3°
Reaches altitude 10° 19:37:57 10° 276° (W) 1,253 5.6 -21.6°
Enters shadow 19:39:38 32° 283° (WNW) 593 3.6 -21.9°
